Regional Weather Roundup
Issued by NWS

Home | Current Version | Previous Version | Text Only | Print | Product List | Glossary On
Versions: 1 2 3 4 5 6 7 8 9 10 11 12 13 14 15 16 17 18 19 20 21 22 23 24 25 26 27 28 29 30 31 32 33 34 35 36 37 38 39 40 41 42 43 44 45 46 47 48 49 50
000
ASUS44 KEWX 241603
RWRTX
SOUTH TEXAS REGIONAL WEATHER ROUNDUP
NATIONAL WEATHER SERVICE AUSTIN/SAN ANTONIO TX
1100 AM CDT FRI MAR 24 2017

NOTE: "FAIR" INDICATED FEW OR NO CLOUDS BELOW 12,000 FEET WITH NO
SIGNIFICANT WEATHER AND/OR OBSTRUCTIONS TO VISIBILITY.

* - THESE STATIONS ARE NOT NWS OR FAA STATIONS...AND ARE NOT SUBJECT
    TO NWS AND FAA QUALITY CONTROL.

TXZ171-172-183>190-241700-
TEXAS HILL COUNTRY AND EDWARDS PLATEAU

CITY           SKY/WX    TMP DP  RH WIND       PRES   REMARKS
JUNCTION       SUNNY     69  34  27 W12       29.98R
*LLANO         CLOUDY    63  57  82 SW3       29.99S
BURNET         LGT RAIN  61  58  90 VRB5      29.97R FOG
*HORSESHOE BAY RAIN      65  57  76 W9        29.97R
*KERRVILLE     CLOUDY    58  53  84 CALM      29.99F
*FREDERICKSBRG CLOUDY    57  50  78 CALM      29.99F
*ROCKSPRINGS   SUNNY     66  36  32 NW13      30.02R
*BOERNE STAGE    N/A     64  63  94 S6        30.00R
*CASTROVILLE   CLOUDY    70  63  79 S6        29.99R
HONDO          CLOUDY    72  64  76 S6        29.97S
*UVALDE        PTSUNNY   70  64  80 CALM      29.98S
DEL RIO        SUNNY     75  30  19 N10       29.98R
LAUGHLIN AFB   SUNNY     75  35  22 NW10      29.98S
CARRIZO SPRGS  MOSUNNY   73  63  68 CALM      29.95S
*EAGLE PASS    SUNNY     75  63  64 NE7       29.97S
$$

TXZ173-191>194-202-209-217>225-228-241700-
CENTRAL AND SOUTH CENTRAL TEXAS

CITY           SKY/WX    TMP DP  RH WIND       PRES   REMARKS
GEORGETOWN     CLOUDY    68  63  83 S13       29.94F
AUSTIN/BERGSTM CLOUDY    69  67  93 S7        29.96S
AUSTIN/MABRY   CLOUDY    69  66  90 S7        29.96F
*AUSTIN/EXEC     N/A    N/A N/A N/A MISG        N/A
*LAGO VISTA    CLOUDY    69  65  88 S9G16     29.97R
SAN MARCOS     CLOUDY    70  66  88 S7        29.98S FOG
NEW BRAUNFELS  CLOUDY    72  65  78 S12       29.95F
RANDOLPH AFB   PTSUNNY   72  69  89 S12       29.97R
PT SAN ANTONIO PTSUNNY   71  66  85 S7        29.95S
SAN ANTONIO    CLOUDY    70  64  81 S8G16     29.97S
STINSON FIELD  LGT RAIN  71  66  84 S5        29.95S
*PLEASANTON    CLOUDY    72  66  81 S5        29.97R
*LA GRANGE     DRIZZLE   74  68  80 S14       29.96S
*GIDDINGS      LGT RAIN  72  64  77 S12G17    29.98S
*GONZALES      CLOUDY    74  68  81 S9G20     29.97S
$$

TXZ163>164-176>182-195>201-210>213-226-227-235-241700-
SOUTHEAST TEXAS

CITY           SKY/WX    TMP DP  RH WIND       PRES   REMARKS
COLLEGE STN    CLOUDY    73  65  75 S18G24    29.99R
*BRYAN         CLOUDY    73  64  73 S14G23    30.01S
*CALDWELL      NOT AVBL
*CROCKETT      CLOUDY    72  64  78 S13       30.06S
*BRENHAM       CLOUDY    74  66  75 SE12G20   30.00S
HUNTSVILLE     CLOUDY    75  62  64 S15G23    30.03R
CONROE         CLOUDY    76  63  64 S22G29    30.03S
HOUSTON BUSH   CLOUDY    76  63  64 S23G30    30.03F
HOUSTON HOBBY  PTSUNNY   77  63  61 S20G26    30.03F
*HOUSTON SW AP CLOUDY    75  64  67 SE15G24   30.04F
PEARLAND       PTSUNNY   77  63  61 S20G35    30.05S
HOUSTON HOOKS  PTSUNNY   75  63  66 S13G23    30.03S
ELLINGTON FLD  NOT AVBL
SUGAR LAND     CLOUDY    79  65  62 S21G28    30.02F
*HOUSTON EXEC  PTSUNNY   75  64  69 S21G26    30.03F
*CLEVELAND MUN CLOUDY    76  65  67 S16G23    30.05S
*WHARTON       PTSUNNY   76  64  65 SE17G23   30.03S
*COLUMBUS      CLOUDY    72  66  81 S9G20     30.01S
*EAGLE LAKE    LGT RAIN  75  67  77 S17       30.00F
$$

TXZ214>216-236>238-241700-
THE UPPER TEXAS COAST

CITY           SKY/WX    TMP DP  RH WIND       PRES   REMARKS
*ORANGE        CLOUDY    74  67  80 S15       30.13R
PORT ARTHUR    CLOUDY    75  64  68 S18G28    30.10S
GALVESTON      PTSUNNY   76  68  76 SE20      30.07R
ANGLETON       MOSUNNY   76  65  68 S23G35    30.04R
*BAY CITY      CLOUDY    77  67  70 S18G24    30.03R
PALACIOS       LGT RAIN  76  67  73 S17G24    30.01R
$$

TXZ229>234-239>247-241700-
TEXAS COASTAL BEND AND RIO GRANDE PLAINS

CITY           SKY/WX    TMP DP  RH WIND       PRES   REMARKS
VICTORIA       CLOUDY    75  67  76 S16       29.99S
*BEEVILLE      CLOUDY    76  69  79 S17       29.96R
ROCKPORT       CLOUDY    77  68  73 S15G22    29.98R
*PORT ARANSAS  CLOUDY    75  69  79 SE13G18   29.97R
*PORT LAVACA   CLOUDY    77  70  78 S20G25    30.00S
*INGLESIDE     CLOUDY    77  70  78 S17G26    29.96S
CORPUS CHRISTI PTSUNNY   78  69  73 S29G36    29.95S
CORPUS NAS     CLOUDY    77  67  71 S22G32    29.96R
*ROBSTOWN      PTSUNNY   79  67  66 S22G31    29.95R
ALICE          CLOUDY    80  66  62 S16       29.93R
KINGSVILLE NAS PTSUNNY   80  68  66 S24       29.93F
COTULLA        CLOUDY    75  63  66 S6        29.96R
*FAITH RANCH   MOSUNNY   75  61  60 W6        29.96R
LAREDO         MOSUNNY   74  63  68 SW7       29.96R
$$

TXZ248>255-241700-
DEEP SOUTH TEXAS

CITY           SKY/WX    TMP DP  RH WIND       PRES   REMARKS
BROWNSVILLE    CLOUDY    81  69  67 S30G40    29.96R
PORT ISABEL    CLOUDY    79  69  71 S26G36    29.94R
*SOUTH PADRE   NOT AVBL
HARLINGEN      MOSUNNY   81  67  62 S32G43    29.92S
*HEBBRONVILLE  PTSUNNY   76  63  62 S12       29.95S
MCALLEN        MOSUNNY   82  66  58 S24G32    29.92S
*WESLACO       CLOUDY    81  67  61 S25G33    29.92R
FALFURRIAS     PTSUNNY   80  66  64 S21G28    29.93S
EDINBURG       CLOUDY    82  65  56 S20G31    29.94R
*ZAPATA        CLOUDY    78  61  54 S7        29.94R
$$

TXZ213>215-236>238-242>244-246-247-251-254-255-241700-
CMAN STATIONS

STATION/POSITION TIME  TEMP    WIND        PRES    WAVE
                       AIR SEA DIR/SP/G            HT/PER
                 (UTC) (F)     (DEG/KT/KT) (MB)    (FT/S)
SABINE PASS      1530   73 72  160/ 11/ 15 1020.9
SEA RIM ST PARK  1500   72     160/ 12/ 16 1019.4
NORTH JETTY/GLS  1530   76 69  140/ 17/ 20   N/A
EAGLE POINT      1530   73 73  170/ 16/ 19 1018.0
MORGANS POINT    1530   74 73  150/  8/ 15 1017.9
MISSION/ARANSAS  1500   74                 1015.0
PORT O`CONNOR    1530   72     150/ 12/ 14 1015.8
PORT ARANSAS     1500   72 70  150/ 16/ 17 1014.4
MALAQUITE BEACH  1530   71 71  150/ 13/ 15 1015.2
BAFFIN BAY       1530   74 74  130/ 19/ 24 1014.4
PORT ISABEL      1530   75 72  150/ 17/ 24 1014.0
$$

GMZ080-GMZ150>470-241700-
OFFSHORE BUOY REPORTS

STATION/POSITION TIME  TEMP    WIND        PRES    WAVE
                       AIR SEA DIR/SP/G            HT/PER
                 (UTC) (F)     (DEG/KT/KT) (MB)    (FT/S)
20 E GALVESTON   1450   71 71  160/ 16/ 17 1017.5    6/ 7
90 E PT ARANSAS  1450   74 72  150/ 27/ 33 1015.1    9/ 7
35 NE PT MANSFLD 1450   73     170/ 16/ 19 1013.7    9/ 8
200 E PT ISABEL  1450   76 76  140/ 23/ 27 1017.4    8/ 7
$$



USA.gov is the U.S. government's official web portal to all federal, state and local government web resources and services.